SHT22B EGJB-EGLL

Flight info

Callsign SHT22B
Flight time 0h 37m
Altitude 19000
Route ORIST L982 ROXOG
Aircraft A320/M-SDE3FGHIRWY/LB1

Departure

Time 2026-04-23 12:05
Airport Guernsey Airport (EGJB)

Arrival

Time 2026-04-23 12:42
Airport London Heathrow Airport (EGLL)
Time Latitude Longitude Altitude Speed Heading
2026-04-23 11:42 49.43301 -2.59403 330 ft 0 kts 177°
2026-04-23 11:54 49.43314 -2.59403 326 ft 4 kts 181°
2026-04-23 11:54 49.43341 -2.59399 327 ft 4 kts 196°
2026-04-23 11:54 49.43363 -2.59382 326 ft 4 kts 234°
2026-04-23 11:54 49.43370 -2.59360 329 ft 1 kts 268°
2026-04-23 11:55 49.43370 -2.59356 329 ft 2 kts 268°
2026-04-23 11:58 49.43369 -2.59364 331 ft 3 kts 268°
2026-04-23 11:58 49.43367 -2.59436 325 ft 9 kts 267°
2026-04-23 11:58 49.43364 -2.59513 327 ft 12 kts 266°
2026-04-23 11:59 49.43359 -2.59661 327 ft 16 kts 266°
2026-04-23 11:59 49.43344 -2.59844 324 ft 19 kts 266°
2026-04-23 11:59 49.43338 -2.60066 320 ft 23 kts 268°
2026-04-23 11:59 49.43332 -2.60323 317 ft 26 kts 268°
2026-04-23 12:00 49.43327 -2.60616 313 ft 29 kts 274°
2026-04-23 12:00 49.43364 -2.60935 311 ft 31 kts 274°
2026-04-23 12:00 49.43359 -2.61171 306 ft 13 kts 265°
2026-04-23 12:00 49.43359 -2.61220 305 ft 0 kts 276°
2026-04-23 12:03 49.43361 -2.61239 305 ft 6 kts 284°
2026-04-23 12:03 49.43396 -2.61317 307 ft 11 kts 314°
2026-04-23 12:03 49.43460 -2.61342 304 ft 9 kts 45°
2026-04-23 12:03 49.43468 -2.61274 306 ft 0 kts 89°
2026-04-23 12:04 49.43475 -2.60996 310 ft 69 kts 87°
2026-04-23 12:05 49.43507 -2.59869 338 ft 137 kts 86°
2026-04-23 12:05 49.43547 -2.58354 1078 ft 143 kts 87°
2026-04-23 12:05 49.43597 -2.56859 2027 ft 138 kts 91°
2026-04-23 12:05 49.43658 -2.55286 2375 ft 159 kts 92°
2026-04-23 12:06 49.43700 -2.53460 2726 ft 183 kts 93°
2026-04-23 12:06 49.43743 -2.51451 3421 ft 191 kts 91°
2026-04-23 12:06 49.45454 -2.48245 4895 ft 231 kts 20°
2026-04-23 12:07 49.47048 -2.47738 5690 ft 235 kts 18°
2026-04-23 12:07 49.48664 -2.47187 6379 ft 246 kts 19°
2026-04-23 12:07 49.50402 -2.46540 6768 ft 269 kts 19°
2026-04-23 12:07 49.52272 -2.45829 7393 ft 282 kts 19°
2026-04-23 12:08 49.54188 -2.45104 8216 ft 286 kts 19°
2026-04-23 12:08 49.56133 -2.44371 9077 ft 289 kts 19°
2026-04-23 12:08 49.58094 -2.43629 9945 ft 292 kts 18°
2026-04-23 12:08 49.60076 -2.42877 10781 ft 294 kts 19°
2026-04-23 12:09 49.62070 -2.42118 11570 ft 296 kts 18°
2026-04-23 12:09 49.64077 -2.41354 12361 ft 298 kts 19°
2026-04-23 12:09 49.66095 -2.40578 13151 ft 300 kts 19°
2026-04-23 12:09 49.68124 -2.39767 13932 ft 301 kts 22°
2026-04-23 12:10 49.70015 -2.38442 14622 ft 298 kts 36°
2026-04-23 12:10 49.71670 -2.36430 14880 ft 312 kts 49°
2026-04-23 12:10 49.73130 -2.33801 14998 ft 332 kts 53°
2026-04-23 12:10 49.74644 -2.31009 15321 ft 344 kts 52°
2026-04-23 12:11 49.76200 -2.28153 15850 ft 350 kts 52°
2026-04-23 12:11 49.77758 -2.25311 16464 ft 352 kts 51°
2026-04-23 12:11 49.79370 -2.22380 17087 ft 354 kts 51°
2026-04-23 12:11 49.80972 -2.19466 17718 ft 356 kts 51°
2026-04-23 12:12 49.82589 -2.16526 18293 ft 361 kts 50°
2026-04-23 12:12 49.84216 -2.13555 18888 ft 363 kts 50°
2026-04-23 12:12 49.85831 -2.10604 19220 ft 366 kts 50°
2026-04-23 12:12 49.87500 -2.07549 19319 ft 365 kts 50°
2026-04-23 12:13 49.89141 -2.04542 19342 ft 365 kts 50°
2026-04-23 12:13 49.90762 -2.01570 19342 ft 366 kts 50°
2026-04-23 12:13 49.92398 -1.98558 19362 ft 365 kts 50°
2026-04-23 12:13 49.94035 -1.95535 19361 ft 366 kts 50°
2026-04-23 12:14 49.95671 -1.92517 19357 ft 365 kts 50°
2026-04-23 12:14 49.97307 -1.89502 19364 ft 366 kts 50°
2026-04-23 12:14 49.98971 -1.86526 19362 ft 364 kts 46°
2026-04-23 12:14 50.00915 -1.83993 19362 ft 367 kts 35°
2026-04-23 12:15 50.03139 -1.82048 19373 ft 367 kts 28°
2026-04-23 12:15 50.05413 -1.80264 19374 ft 366 kts 28°
2026-04-23 12:15 50.07679 -1.78472 19373 ft 365 kts 28°
2026-04-23 12:15 50.09938 -1.76672 19375 ft 364 kts 28°
2026-04-23 12:16 50.12167 -1.74783 19374 ft 364 kts 34°
2026-04-23 12:16 50.14173 -1.72403 19382 ft 363 kts 40°
2026-04-23 12:16 50.16114 -1.69876 19383 ft 364 kts 40°
2026-04-23 12:16 50.18063 -1.67353 19381 ft 363 kts 40°
2026-04-23 12:17 50.20007 -1.64838 19380 ft 364 kts 40°
2026-04-23 12:17 50.21954 -1.62314 19380 ft 363 kts 40°
2026-04-23 12:17 50.23897 -1.59788 19389 ft 363 kts 40°
2026-04-23 12:17 50.25905 -1.57379 19397 ft 364 kts 33°
2026-04-23 12:18 50.28123 -1.55576 19386 ft 365 kts 24°
2026-04-23 12:18 50.30540 -1.54316 19387 ft 367 kts 19°
2026-04-23 12:18 50.33009 -1.53121 19393 ft 366 kts 19°
2026-04-23 12:18 50.35411 -1.51952 19391 ft 367 kts 19°
2026-04-23 12:19 50.37849 -1.50758 19392 ft 366 kts 19°
2026-04-23 12:19 50.40282 -1.49565 19392 ft 366 kts 19°
2026-04-23 12:19 50.42716 -1.48368 19408 ft 367 kts 19°
2026-04-23 12:19 50.45152 -1.47169 19403 ft 367 kts 19°
2026-04-23 12:20 50.47592 -1.45960 19403 ft 368 kts 20°
2026-04-23 12:20 50.50033 -1.44755 19409 ft 367 kts 19°
2026-04-23 12:20 50.52473 -1.43548 19415 ft 368 kts 20°
2026-04-23 12:20 50.54826 -1.42019 19409 ft 366 kts 29°
2026-04-23 12:21 50.57058 -1.40111 19410 ft 365 kts 30°
2026-04-23 12:21 50.59291 -1.38193 19405 ft 365 kts 30°
2026-04-23 12:21 50.61518 -1.36279 19409 ft 365 kts 30°
2026-04-23 12:21 50.63744 -1.34366 19410 ft 365 kts 30°
2026-04-23 12:22 50.65976 -1.32448 19410 ft 366 kts 30°
2026-04-23 12:22 50.68211 -1.30525 19362 ft 365 kts 30°
2026-04-23 12:22 50.70425 -1.28618 19116 ft 361 kts 30°
2026-04-23 12:22 50.72618 -1.26720 18874 ft 359 kts 31°
2026-04-23 12:23 50.74798 -1.24827 18637 ft 357 kts 31°
2026-04-23 12:23 50.76969 -1.22910 18362 ft 356 kts 32°
2026-04-23 12:23 50.79073 -1.20869 18096 ft 354 kts 34°
2026-04-23 12:23 50.81131 -1.18743 17830 ft 353 kts 36°
2026-04-23 12:24 50.83164 -1.16581 17564 ft 352 kts 36°
2026-04-23 12:24 50.85189 -1.14417 17302 ft 351 kts 36°
2026-04-23 12:24 50.87201 -1.12287 16877 ft 345 kts 36°
2026-04-23 12:24 50.89197 -1.10198 16368 ft 343 kts 36°
2026-04-23 12:25 50.91184 -1.08136 15859 ft 340 kts 36°
2026-04-23 12:25 50.93162 -1.06091 15346 ft 338 kts 36°
2026-04-23 12:25 50.95126 -1.04058 14836 ft 336 kts 36°
2026-04-23 12:25 50.97080 -1.02037 14336 ft 335 kts 36°
2026-04-23 12:26 50.99030 -1.00018 13784 ft 333 kts 36°
2026-04-23 12:26 51.00851 -0.97798 13289 ft 328 kts 46°
2026-04-23 12:26 51.02396 -0.95140 12850 ft 329 kts 51°
2026-04-23 12:26 51.03913 -0.92428 12406 ft 327 kts 50°
2026-04-23 12:27 51.05424 -0.89743 11959 ft 325 kts 50°
2026-04-23 12:27 51.06929 -0.87073 11524 ft 324 kts 50°
2026-04-23 12:27 51.08424 -0.84414 11080 ft 322 kts 50°
2026-04-23 12:27 51.09898 -0.81784 10866 ft 312 kts 50°
2026-04-23 12:28 51.11315 -0.79260 10746 ft 301 kts 50°
2026-04-23 12:28 51.12671 -0.76842 10525 ft 285 kts 50°
2026-04-23 12:28 51.13967 -0.74522 10147 ft 274 kts 51°
2026-04-23 12:28 51.15233 -0.72249 10021 ft 275 kts 51°
2026-04-23 12:29 51.16504 -0.69967 9891 ft 276 kts 51°
2026-04-23 12:29 51.17774 -0.67683 9761 ft 274 kts 51°
2026-04-23 12:29 51.19038 -0.65410 9522 ft 274 kts 51°
2026-04-23 12:29 51.20298 -0.63142 9200 ft 273 kts 51°
2026-04-23 12:30 51.21552 -0.60881 8867 ft 271 kts 51°
2026-04-23 12:30 51.22803 -0.58627 8529 ft 271 kts 51°
2026-04-23 12:30 51.24050 -0.56383 8206 ft 270 kts 51°
2026-04-23 12:30 51.25278 -0.54165 7878 ft 269 kts 51°
2026-04-23 12:31 51.26510 -0.51938 7671 ft 264 kts 51°
2026-04-23 12:31 51.27937 -0.50151 7550 ft 267 kts 27°
2026-04-23 12:31 51.29793 -0.49606 7434 ft 280 kts 359°
2026-04-23 12:31 51.31638 -0.50520 7430 ft 277 kts 330°
2026-04-23 12:32 51.32973 -0.52640 7453 ft 269 kts 301°
2026-04-23 12:32 51.33660 -0.55361 7451 ft 261 kts 288°
2026-04-23 12:32 51.34181 -0.58140 7451 ft 260 kts 286°
2026-04-23 12:32 51.34686 -0.60918 7457 ft 260 kts 286°
2026-04-23 12:33 51.35184 -0.63688 7274 ft 259 kts 286°
2026-04-23 12:33 51.35683 -0.66470 6890 ft 260 kts 286°
2026-04-23 12:33 51.36184 -0.69251 6532 ft 261 kts 286°
2026-04-23 12:33 51.36682 -0.72034 6298 ft 257 kts 286°
2026-04-23 12:34 51.37173 -0.74777 5815 ft 256 kts 286°
2026-04-23 12:34 51.37664 -0.77499 5348 ft 254 kts 286°
2026-04-23 12:34 51.38152 -0.80212 4856 ft 253 kts 286°
2026-04-23 12:34 51.38641 -0.82915 4346 ft 252 kts 286°
2026-04-23 12:35 51.39156 -0.85610 4024 ft 252 kts 292°
2026-04-23 12:35 51.40182 -0.87830 3992 ft 249 kts 326°
2026-04-23 12:35 51.41736 -0.88875 3989 ft 241 kts 359°
2026-04-23 12:35 51.43329 -0.88490 3981 ft 228 kts 31°
2026-04-23 12:36 51.44502 -0.86932 3726 ft 217 kts 56°
2026-04-23 12:36 51.45362 -0.84980 3542 ft 210 kts 61°
2026-04-23 12:36 51.46156 -0.83062 3411 ft 203 kts 61°
2026-04-23 12:36 51.46912 -0.81212 3273 ft 193 kts 61°
2026-04-23 12:37 51.47622 -0.79476 3171 ft 183 kts 61°
2026-04-23 12:37 51.48300 -0.77815 3082 ft 175 kts 66°
2026-04-23 12:37 51.48495 -0.75979 3006 ft 167 kts 98°
2026-04-23 12:37 51.47949 -0.74352 3009 ft 170 kts 125°
2026-04-23 12:38 51.47501 -0.72664 2976 ft 167 kts 89°
2026-04-23 12:38 51.47654 -0.70820 2827 ft 166 kts 89°
2026-04-23 12:38 51.47660 -0.69017 2629 ft 157 kts 90°
2026-04-23 12:38 51.47662 -0.67306 2425 ft 150 kts 89°
2026-04-23 12:39 51.47668 -0.65646 2237 ft 148 kts 88°
2026-04-23 12:39 51.47675 -0.64014 2034 ft 145 kts 88°
2026-04-23 12:39 51.47683 -0.62395 1835 ft 145 kts 88°
2026-04-23 12:39 51.47691 -0.60778 1640 ft 145 kts 89°
2026-04-23 12:40 51.47699 -0.59207 1475 ft 136 kts 88°
2026-04-23 12:40 51.47705 -0.57722 1263 ft 131 kts 87°
2026-04-23 12:40 51.47711 -0.56257 1107 ft 131 kts 87°
2026-04-23 12:40 51.47719 -0.54811 908 ft 130 kts 88°
2026-04-23 12:41 51.47727 -0.53341 734 ft 130 kts 89°
2026-04-23 12:41 51.47732 -0.51884 548 ft 131 kts 90°
2026-04-23 12:41 51.47741 -0.50442 387 ft 129 kts 92°
2026-04-23 12:41 51.47747 -0.48989 198 ft 129 kts 89°
2026-04-23 12:42 51.47752 -0.47575 91 ft 117 kts 90°
2026-04-23 12:42 51.47756 -0.46464 92 ft 77 kts 89°
2026-04-23 12:42 51.47757 -0.45998 85 ft 50 kts 90°
2026-04-23 12:42 51.47758 -0.45574 85 ft 22 kts 92°
2026-04-23 12:43 51.47693 -0.45471 87 ft 11 kts 171°
2026-04-23 12:43 51.47662 -0.45469 84 ft 0 kts 179°
2026-04-23 12:43 51.47658 -0.45469 84 ft 2 kts 179°
2026-04-23 12:43 51.47638 -0.45469 85 ft 4 kts 183°
2026-04-23 12:44 51.47605 -0.45523 87 ft 9 kts 243°
2026-04-23 12:44 51.47595 -0.45637 88 ft 13 kts 270°
2026-04-23 12:44 51.47595 -0.45794 86 ft 15 kts 270°
2026-04-23 12:44 51.47595 -0.45973 88 ft 17 kts 269°
2026-04-23 12:45 51.47594 -0.46171 90 ft 18 kts 270°
2026-04-23 12:45 51.47593 -0.46377 89 ft 19 kts 269°
2026-04-23 12:45 51.47590 -0.46600 90 ft 21 kts 270°
2026-04-23 12:45 51.47587 -0.46845 89 ft 23 kts 265°
2026-04-23 12:46 51.47581 -0.47122 87 ft 26 kts 270°
2026-04-23 12:46 51.47582 -0.47432 90 ft 29 kts 271°
2026-04-23 12:46 51.47581 -0.47769 88 ft 31 kts 269°
2026-04-23 12:46 51.47579 -0.48067 91 ft 27 kts 270°
2026-04-23 12:47 51.47579 -0.48311 92 ft 19 kts 270°
2026-04-23 12:47 51.47578 -0.48502 89 ft 18 kts 269°
2026-04-23 12:47 51.47578 -0.48715 90 ft 20 kts 270°
2026-04-23 12:47 51.47569 -0.48931 87 ft 14 kts 242°
2026-04-23 12:48 51.47492 -0.48904 87 ft 9 kts 143°
2026-04-23 12:48 51.47430 -0.48892 85 ft 1 kts 179°
2026-04-23 12:48 51.47419 -0.48892 85 ft 3 kts 179°
2026-04-23 12:48 51.47409 -0.48892 85 ft 0 kts 179°